• In Hungary
  • List of Countries
  • For 7 days
  • Water Temperature
  • Satellite Maps
  • Weather Map
  • News
  • Weather Widgets
  • user-avatar
    Login

    Hourly Weather Piechowice

    Today, 27 May, Sunday

    Time Temperature Precipitation Wind Pressure Humidity
    00:00 +15°C° 0 mm 1 mps 727 mmHg 77%
    01:00 +15°C° 0 mm 1 mps 727 mmHg 78%
    02:00 +15°C° 0 mm 1 mps 727 mmHg 78%
    03:00 +15°C° 0 mm 1 mps 727 mmHg 79%
    04:00 +14°C° 0 mm 1 mps 727 mmHg 80%
    05:00 +16°C° 0 mm 1 mps 727 mmHg 75%
    06:00 +19°C° 0 mm 1 mps 728 mmHg 71%
    07:00 +21°C° 0 mm 1 mps 728 mmHg 67%
    08:00 +22°C° 0.1 mm 1 mps 728 mmHg 62%
    09:00 +24°C° 0.1 mm 2 mps 728 mmHg 58%
    10:00 +25°C° 0.1 mm 2 mps 728 mmHg 53%
    11:00 +25°C° 0.1 mm 2 mps 728 mmHg 51%
    12:00 +26°C° 0.1 mm 2 mps 728 mmHg 50%
    13:00 +26°C° 0.1 mm 3 mps 728 mmHg 48%
    14:00 +26°C° 0.1 mm 3 mps 728 mmHg 50%
    15:00 +26°C° 0.1 mm 3 mps 727 mmHg 53%
    16:00 +26°C° 0.1 mm 3 mps 727 mmHg 55%
    17:00 +24°C° 0 mm 3 mps 727 mmHg 61%
    18:00 +22°C° 0 mm 3 mps 727 mmHg 68%
    19:00 +21°C° 0 mm 2 mps 727 mmHg 75%
    20:00 +19°C° 0 mm 2 mps 727 mmHg 76%
    21:00 +18°C° 0 mm 2 mps 727 mmHg 78%
    22:00 +17°C° 0 mm 2 mps 727 mmHg 80%
    23:00 +16°C° 0 mm 2 mps 727 mmHg 79%

    Tomorrow, 28 May, Monday

    Time Temperature Precipitation Wind Pressure Humidity
    00:00 +16°C° 0 mm 2 mps 727 mmHg 78%
    01:00 +16°C° 0 mm 2 mps 727 mmHg 77%
    02:00 +16°C° 0 mm 2 mps 727 mmHg 78%
    03:00 +15°C° 0 mm 2 mps 727 mmHg 79%
    04:00 +15°C° 0 mm 1 mps 727 mmHg 80%
    05:00 +17°C° 0 mm 2 mps 727 mmHg 77%
    06:00 +19°C° 0 mm 2 mps 727 mmHg 74%
    07:00 +20°C° 0 mm 2 mps 728 mmHg 72%
    08:00 +23°C° 0 mm 2 mps 728 mmHg 67%
    09:00 +24°C° 0 mm 3 mps 728 mmHg 63%
    10:00 +25°C° 0 mm 4 mps 728 mmHg 59%
    11:00 +26°C° 0 mm 4 mps 728 mmHg 58%
    12:00 +27°C° 0 mm 4 mps 728 mmHg 56%
    13:00 +27°C° 0 mm 4 mps 728 mmHg 55%
    14:00 +27°C° 0.1 mm 4 mps 727 mmHg 56%
    15:00 +27°C° 0.1 mm 4 mps 727 mmHg 58%
    16:00 +27°C° 0.1 mm 4 mps 727 mmHg 59%
    17:00 +26°C° 0.1 mm 4 mps 726 mmHg 65%
    18:00 +24°C° 0.1 mm 3 mps 726 mmHg 71%
    19:00 +22°C° 0.1 mm 3 mps 726 mmHg 76%
    20:00 +21°C° 0 mm 3 mps 726 mmHg 78%
    21:00 +19°C° 0 mm 3 mps 726 mmHg 80%
    22:00 +18°C° 0 mm 3 mps 726 mmHg 82%
    23:00 +18°C° 0 mm 3 mps 726 mmHg 83%

    Day after tomorrow, 29 May, Tuesday

    Time Temperature Precipitation Wind Pressure Humidity
    00:00 +17°C° 0 mm 2 mps 726 mmHg 85%
    01:00 +16°C° 0 mm 2 mps 725 mmHg 86%
    02:00 +16°C° 0 mm 2 mps 725 mmHg 86%
    03:00 +16°C° 0 mm 2 mps 725 mmHg 87%
    04:00 +15°C° 0 mm 2 mps 725 mmHg 87%
    05:00 +17°C° 0 mm 3 mps 725 mmHg 83%
    06:00 +19°C° 0 mm 3 mps 725 mmHg 79%
    07:00 +21°C° 0 mm 3 mps 725 mmHg 76%
    08:00 +22°C° 0 mm 3 mps 725 mmHg 70%
    09:00 +25°C° 0 mm 4 mps 725 mmHg 65%
    10:00 +26°C° 0 mm 4 mps 725 mmHg 60%
    11:00 +27°C° 0 mm 4 mps 725 mmHg 57%
    12:00 +27°C° 0 mm 5 mps 725 mmHg 55%
    13:00 +28°C° 0 mm 5 mps 724 mmHg 52%
    14:00 +28°C° 0 mm 5 mps 724 mmHg 53%
    15:00 +28°C° 0 mm 5 mps 723 mmHg 54%
    16:00 +28°C° 0 mm 5 mps 723 mmHg 55%
    17:00 +26°C° 0 mm 4 mps 723 mmHg 61%
    18:00 +25°C° 0 mm 4 mps 723 mmHg 68%
    19:00 +22°C° 0 mm 3 mps 722 mmHg 74%
    20:00 +21°C° 0 mm 3 mps 722 mmHg 77%
    21:00 +20°C° 0 mm 3 mps 722 mmHg 80%
    22:00 +18°C° 0 mm 3 mps 722 mmHg 83%
    23:00 +18°C° 0 mm 3 mps 722 mmHg 83%

    30 May, Wednesday

    Time Temperature Precipitation Wind Pressure Humidity
    00:00 +18°C° 0 mm 3 mps 722 mmHg 83%
    01:00 +17°C° 0 mm 3 mps 722 mmHg 83%
    02:00 +17°C° 0 mm 3 mps 722 mmHg 84%
    03:00 +17°C° 0 mm 3 mps 722 mmHg 84%
    04:00 +16°C° 0 mm 3 mps 721 mmHg 84%
    05:00 +18°C° 0 mm 4 mps 722 mmHg 79%
    06:00 +19°C° 0 mm 4 mps 722 mmHg 74%
    07:00 +20°C° 0 mm 5 mps 722 mmHg 69%
    08:00 +22°C° 0 mm 5 mps 722 mmHg 64%
    09:00 +23°C° 0 mm 5 mps 722 mmHg 60%
    10:00 +25°C° 0 mm 5 mps 722 mmHg 56%
    11:00 +26°C° 0 mm 5 mps 722 mmHg 55%
    12:00 +26°C° 0 mm 5 mps 722 mmHg 53%
    13:00 +27°C° 0 mm 5 mps 722 mmHg 52%
    14:00 +27°C° 0.1 mm 5 mps 722 mmHg 53%
    15:00 +27°C° 0.1 mm 4 mps 722 mmHg 54%
    16:00 +27°C° 0.1 mm 4 mps 721 mmHg 55%
    17:00 +25°C° 0.1 mm 3 mps 721 mmHg 61%
    18:00 +24°C° 0.1 mm 3 mps 721 mmHg 67%
    19:00 +23°C° 0.1 mm 2 mps 721 mmHg 73%
    20:00 +20°C° 0 mm 2 mps 721 mmHg 76%
    21:00 +19°C° 0 mm 2 mps 721 mmHg 79%
    22:00 +17°C° 0 mm 2 mps 721 mmHg 82%
    23:00 +17°C° 0 mm 2 mps 721 mmHg 82%

    31 May, Thursday

    Time Temperature Precipitation Wind Pressure Humidity
    00:00 +17°C° 0 mm 2 mps 721 mmHg 82%
    01:00 +16°C° 0 mm 2 mps 721 mmHg 82%
    02:00 +16°C° 0 mm 2 mps 721 mmHg 82%
    03:00 +16°C° 0 mm 1 mps 721 mmHg 82%
    04:00 +15°C° 0 mm 1 mps 721 mmHg 82%
    05:00 +18°C° 0 mm 1 mps 721 mmHg 77%
    06:00 +20°C° 0 mm 1 mps 721 mmHg 72%
    07:00 +22°C° 0 mm 1 mps 722 mmHg 66%
    08:00 +23°C° 0 mm 2 mps 722 mmHg 62%
    09:00 +25°C° 0 mm 2 mps 722 mmHg 58%
    10:00 +26°C° 0 mm 2 mps 722 mmHg 53%
    11:00 +26°C° 0.1 mm 3 mps 722 mmHg 52%
    12:00 +27°C° 0.1 mm 3 mps 722 mmHg 51%
    13:00 +28°C° 0.1 mm 3 mps 722 mmHg 49%
    14:00 +27°C° 0.2 mm 3 mps 722 mmHg 51%
    15:00 +27°C° 0.2 mm 3 mps 721 mmHg 53%
    16:00 +27°C° 0.2 mm 3 mps 721 mmHg 55%
    17:00 +25°C° 0.1 mm 3 mps 721 mmHg 61%
    18:00 +24°C° 0.1 mm 2 mps 721 mmHg 66%
    19:00 +23°C° 0.1 mm 2 mps 721 mmHg 72%
    20:00 +21°C° 0 mm 2 mps 721 mmHg 75%
    21:00 +19°C° 0 mm 2 mps 722 mmHg 78%
    22:00 +18°C° 0 mm 2 mps 722 mmHg 81%
    23:00 +17°C° 0 mm 2 mps 722 mmHg 84%

    1 June, Friday

    Time Temperature Precipitation Wind Pressure Humidity
    00:00 +17°C° 0 mm 2 mps 722 mmHg 86%
    01:00 +16°C° 0 mm 2 mps 722 mmHg 88%
    02:00 +16°C° 0 mm 2 mps 722 mmHg 89%
    03:00 +15°C° 0 mm 2 mps 722 mmHg 91%
    04:00 +15°C° 0 mm 2 mps 722 mmHg 93%
    05:00 +17°C° 0 mm 2 mps 723 mmHg 88%
    06:00 +18°C° 0 mm 2 mps 723 mmHg 83%
    07:00 +19°C° 0 mm 3 mps 724 mmHg 79%
    08:00 +21°C° 0 mm 3 mps 724 mmHg 73%
    09:00 +22°C° 0 mm 4 mps 724 mmHg 67%
    10:00 +25°C° 0 mm 4 mps 724 mmHg 62%
    11:00 +25°C° 0 mm 4 mps 724 mmHg 59%
    12:00 +26°C° 0 mm 5 mps 724 mmHg 57%
    13:00 +26°C° 0 mm 5 mps 724 mmHg 55%
    14:00 +26°C° 0 mm 5 mps 724 mmHg 55%
    15:00 +25°C° 0 mm 5 mps 724 mmHg 55%
    16:00 +25°C° 0 mm 5 mps 724 mmHg 55%
    17:00 +23°C° 0 mm 5 mps 724 mmHg 59%
    18:00 +21°C° 0 mm 4 mps 724 mmHg 63%
    19:00 +20°C° 0 mm 4 mps 724 mmHg 68%
    20:00 +18°C° 0 mm 4 mps 724 mmHg 71%
    21:00 +15°C° 0 mm 4 mps 724 mmHg 74%
    22:00 +14°C° 0 mm 3 mps 725 mmHg 78%
    23:00 +13°C° 0 mm 3 mps 725 mmHg 80%
    Show more